Location: Fond Mahaut
(18.0707°N, 63.0465°W)
Time: 09:24:09
(UTC+00:00)

Cosmos 1603 - Pass Details

Date: 08 December 2019
Orbit: 830 x 860 km, 71.0° (Epoch: 17 January)

Event Time Altitude Azimuth Distance (km) Brightness Sun altitude
Rises 22:53:35 0° 187° (S) 3,381 7.2 -17.9°
Reaches altitude 10° 22:56:03 10° 184° (S) 2,452 6.4 -18.5°
Maximum altitude 23:01:35 59° 105° (ESE) 968 3.7 -19.7°
Enters shadow 23:04:02 33° 40° (NE) 1,396 4.4 -20.3°
